Regional Weather Roundup
Issued by NWS

Home | Current Version | Previous Version | Graphics & Text | Print | Product List | Glossary Off
Versions: 1 2 3 4 5 6 7 8 9 10 11 12 13 14 15 16 17 18 19 20 21 22 23 24 25 26 27 28 29 30 31 32 33 34 35 36 37 38 39 40 41 42 43 44 45 46 47 48 49 50

000
ASUS43 KDTX 180410
RWRMI
MICHIGAN HOURLY REGIONAL WEATHER ROUNDUP
NATIONAL WEATHER SERVICE DETROIT/PONTIAC MI
1200 AM EDT SAT APR 18 2015

NOTE: "FAIR" INDICATES FEW OR NO CLOUDS BELOW 12,000 FEET WITH NO
SIGNIFICANT WEATHER AND/OR OBSTRUCTION TO VISIBILITY.

MIZ047>049-052>055-059>063-066>070-074>076-081>083-180500-
SOUTHEAST LOWER MICHIGAN

CITY           SKY/WX    TMP DP  RH WIND       PRES   REMARKS
ADRIAN         CLEAR     56  44  64 W3        30.02F
ALMA           CLEAR     56  42  60 SW5       30.01R
ANN ARBOR      CLEAR     50  43  77 W3        30.01S
BAD AXE        CLEAR     49  41  74 CALM      29.99S
CARO           CLEAR     51  45  79 CALM      29.97S
DETROIT CITY   CLEAR     56  44  64 S5        30.00F
DETROIT        CLEAR     55  44  66 CALM      30.01F
FLINT          CLEAR     61  40  45 SW6       29.99F
GROSSE ILE     CLEAR     50  46  87 CALM      30.00S
HILLSDALE      CLEAR     59  40  49 CALM      30.03S
HOWELL         CLEAR     59  39  47 W5        30.00F

CITY           SKY/WX    TMP DP  RH WIND       PRES   REMARKS
JACKSON        CLEAR     54  42  64 SW3       30.02S
LAMBERTVILLE   CLEAR     54  45  71 CALM      30.02S
LANSING        CLEAR     57  41  55 CALM      30.02S
LAPEER         FAIR      53  43  70 CALM      29.99F
MASON          CLEAR     54  41  62 CALM      30.01S
MONROE         CLEAR     52  46  82 CALM      30.00S
PONTIAC        PTCLDY    56  41  57 CALM      30.00F
PORT HOPE        N/A     42  39  89 E8        29.98S
PORT HURON     CLEAR     54  46  76 S5        30.00F
TRI CITIES     CLEAR     55  44  66 NE8       30.00R
TROY           CLEAR     60  41  49 SW5       30.02F
SAGINAW HB     CLEAR     59  41  51 N8        29.99R
$$
MIZ043>046-050>051-056>058-064>065-071>073-077>080-180500-
SOUTHWEST LOWER MICHIGAN

CITY           SKY/WX    TMP DP  RH WIND       PRES   REMARKS
BATTLE CREEK   CLEAR     53  42  66 S3        30.03S
BENTON HARBOR  CLEAR     55  45  68 CALM      30.01S
BIG RAPIDS     CLEAR     49  40  70 W5        30.00S
COLDWATER      CLEAR     51  44  75 CALM      30.02S
FREMONT        FAIR      51  35  53 CALM      30.00S
HOLLAND        CLEAR     53  44  71 CALM      30.01F
GRAND RAPIDS   CLEAR     53  41  63 CALM      30.01F
IONIA          FAIR      57  41  54 W6        30.01R
KALAMAZOO      CLEAR     55  42  61 CALM      30.02F
LUDINGTON      CLEAR     48  39  72 CALM      30.00S
MARSHALL       CLEAR     50  39  66 CALM      30.02S
MOUNT PLEASANT CLEAR     52  43  70 CALM      29.99S
MUSKEGON       CLEAR     50  41  71 CALM      30.01S
SOUTH HAVEN    CLEAR     54  45  72 CALM      30.01S
$$
MIZ016>042-180500-
NORTHERN LOWER MICHIGAN

CITY           SKY/WX    TMP DP  RH WIND       PRES   REMARKS
ALPENA         CLEAR     43  36  76 CALM      29.99S
BEAVER ISLAND  CLEAR     38  34  85 CALM      30.00R
BELLAIRE       CLEAR     43  39  86 CALM      29.97S
CADILLAC       CLEAR     44  36  75 CALM      29.99S
CHARLEVOIX     CLEAR     44  35  72 CALM      30.00R
FRANKFORT      CLEAR     55  33  42 SW3       29.98S
GAYLORD        CLEAR     49  38  65 CALM      29.97F
GRAYLING       CLEAR     40  34  79 CALM      29.99S
HARBOR SPRINGS PTCLDY    41  32  70 CALM      29.97R
HOUGHTON LAKE  CLEAR     43  38  82 CALM      29.99F
MANISTEE       CLEAR     45  37  76 CALM      30.00S
OSCODA         CLEAR     39  36  88 CALM      29.98F
PELLSTON       PTCLDY    40  29  64 CALM      29.97F
ROGERS CITY    CLEAR     39  32  75 CALM      29.99F
TRAVERSE CITY  PTCLDY    47  37  68 CALM      29.96S
$$
MIZ007>008-015-180500-
EASTERN UPPER MICHIGAN

CITY           SKY/WX    TMP DP  RH WIND       PRES   REMARKS
KINROSS        CLEAR     45  27  49 SW5       29.95F
MACKINAC ISLAN CLEAR     42  31  66 NW3       29.97S
NEWBERRY       CLEAR     44  32  63 SW8       29.96S
S. S. MARIE    CLEAR     40  29  64 CALM      29.94F
MUNISING         N/A     52  32  46 SW9       29.94F
$$
MIZ004>006-011>014-085-180500-
CENTRAL UPPER MICHIGAN

CITY           SKY/WX    TMP DP  RH WIND       PRES   REMARKS
MANISTIQUE     CLEAR     38  34  84 CALM      29.98S
ESCANABA       CLEAR     37  32  81 CALM      29.98F
MENOMINEE      CLEAR     46  37  71 CALM      29.97R
SAWYER-GWINN   CLEAR     46  34  61 SW6       29.97S
$$
MIZ001>003-009>011-084-180500-
WESTERN UPPER MICHIGAN

CITY           SKY/WX    TMP DP  RH WIND       PRES   REMARKS
IRON MOUNTAIN  CLEAR     47  38  71 S5        29.97S
HOUGHTON       PTCLDY    52  28  39 NW22G31   29.97R
COPPER HARBOR    N/A     49  29  46 NW13G24   29.95R
IRONWOOD       CLEAR     46  30  53 W5        29.98R
$$

ABBREVIATIONS USED IN REMARKS
   TC - TEMPERATURE IN CELSIUS
  WCI - WIND CHILL INDEX
   HX - HEAT INDEX
  VSB - VISIBILITY




USA.gov is the U.S. government's official web portal to all federal, state and local government web resources and services.